This is the latest recevied weather packets stored in our database for station/object KE8AFF-13. If no packets are shown the sender has not sent any weather packets the latest 10 day(s).
| Time | Temp. | Humidity | Pressure | Rain* | Wind** | Luminosity | Snow |
|---|---|---|---|---|---|---|---|
| 1777981116 | 15° C | 85% | 1005.4 hPa | 0 mm | - | 29 W/m² | - |
| 1777980813 | 15° C | 85% | 1005 hPa | 0 mm | - | 29 W/m² | - |
| 1777980509 | 14.44° C | 86% | 1004.7 hPa | 0 mm | - | 23 W/m² | - |
| 1777980207 | 14.44° C | 86% | 1004.7 hPa | 0 mm | - | 19 W/m² | - |
| 1777979902 | 14.44° C | 86% | 1004.1 hPa | 0 mm | - | 19 W/m² | - |
| 1777979597 | 14.44° C | 86% | 1004.3 hPa | 0 mm | - | 15 W/m² | - |
| 1777979294 | 14.44° C | 86% | 1004.2 hPa | 0 mm | - | 7 W/m² | - |
| 1777978991 | 14.44° C | 86% | 1004.1 hPa | 0 mm | - | 7 W/m² | - |
| 1777978688 | 14.44° C | 86% | 1004.4 hPa | 0 mm | - | 10 W/m² | - |
| 1777978383 | 14.44° C | 86% | 1004.3 hPa | 0 mm | - | 6 W/m² | - |
| 1777978080 | 14.44° C | 85% | 1004.4 hPa | 0 mm | - | 5 W/m² | - |
| 1777977778 | 14.44° C | 84% | 1004.8 hPa | 0 mm | - | 2 W/m² | - |
| 1777977474 | 14.44° C | 84% | 1005 hPa | 0 mm | - | 0 W/m² | - |
| 1777977172 | 14.44° C | 84% | 1004.9 hPa | 0 mm | - | 0 W/m² | - |
| 1777976869 | 15° C | 84% | 1004.9 hPa | 0 mm | - | 0 W/m² | - |
| 1777976567 | 14.44° C | 84% | 1005 hPa | 0 mm | - | 0 W/m² | - |
| 1777976266 | 14.44° C | 85% | 1005 hPa | 0 mm | - | 0 W/m² | - |
| 1777975961 | 14.44° C | 85% | 1005.3 hPa | 0.51 mm | - | 0 W/m² | - |
| 1777975658 | 14.44° C | 85% | 1005.1 hPa | 0.51 mm | - | 0 W/m² | - |
| 1777975355 | 15° C | 83% | 1005.4 hPa | 0 mm | - | 0 W/m² | - |
| 1777975050 | 15° C | 83% | 1005.4 hPa | 0 mm | - | 0 W/m² | - |
| 1777974748 | 15° C | 81% | 1005.3 hPa | 0 mm | - | 0 W/m² | - |
| 1777974443 | 15.56° C | 80% | 1005.4 hPa | 0 mm | - | 0 W/m² | - |
| 1777974140 | 15.56° C | 79% | 1005.4 hPa | 0 mm | - | 0 W/m² | - |
| 1777973836 | 15.56° C | 78% | 1005.9 hPa | 0 mm | - | 0 W/m² | - |
* Rain latest hour (hover to see other rain measurements)
** Current wind speed in m/s (hover to see current wind gust speed)